Regional Weather Roundup
Issued by NWS Albany, NY

Home | Current Version | Previous Version | Graphics & Text | Print | Product List | Glossary Off
Versions: 1 2 3 4 5 6 7 8 9 10 11 12 13 14 15 16 17 18 19 20 21 22 23 24 25 26 27 28 29 30 31 32 33 34 35 36 37 38 39 40 41 42 43 44 45 46 47 48 49 50

000
ASUS41 KALY 250110
RWRALY

NEW YORK STATE HOURLY WEATHER ROUNDUP
NATIONAL WEATHER SERVICE ALBANY NY
900 PM EDT FRI APR 24 2015

NOTE: "FAIR" INDICATES FEW OR NO CLOUDS BELOW 12,000 FEET WITH NO
SIGNIFICANT WEATHER AND/OR NO OBSTRUCTIONS TO VISIBILITY.

NYZ032-033-038>043-046>054-057>066-NYZ062>081-250200-
EAST


CITY           SKY/WX    TMP DP  RH WIND       PRES   REMARKS
ALBANY         CLOUDY    38  20  48 W15       29.92R WCI  29
GLENS FALLS    CLOUDY    38  21  50 SW5       29.88R WCI  34
POUGHKEEPSIE   MOCLDY    40  20  44 NW6       29.93R
NEWBURGH       PTCLDY    37  23  56 NW8G22    29.93R WCI  31
MONTGOMERY     PTCLDY    38  21  50 NW17      29.93R WCI  28
WHITE PLAINS   PTCLDY    38  20  48 NW23G33   29.89R WCI  27
ISLIP          PTCLDY    40  22  48 NW20G28   29.87R WCI  30
NEW YORK CITY  CLEAR     42  21  43 N22G32    29.92R
CENTRAL PARK   CLEAR     43  19  38 NW10G24   29.94R
$$

NYZ005>009-017-018-044>046-055-056-250200-
CENTRAL


CITY           SKY/WX    TMP DP  RH WIND       PRES   REMARKS
FULTON         CLEAR     35  23  61 W9        29.96S WCI  28
SYRACUSE       PTCLDY    35  21  56 W10       29.97R WCI  27
ROME           CLEAR     34  22  61 W10       29.96R WCI  26
ELMIRA         CLOUDY    40  20  44 W3        29.96R
BINGHAMTON     CLOUDY    32  21  64 NW5       29.92R WCI  27
MONTICELLO     CLEAR     30  19  64 NW6       29.92R WCI  24
$$

NYZ026>034-041>043-250200-
NORTH


CITY           SKY/WX    TMP DP  RH WIND       PRES   REMARKS
WATERTOWN      CLOUDY    38  28  67 W13       29.92R WCI  30
FORT DRUM      NOT AVBL
MASSENA        CLOUDY    38  21  50 W9        29.91R WCI  31
SARANAC LAKE   CLOUDY    31  19  61 VRB3      29.82R
PLATTSBURGH    CLOUDY    38  20  48 NW8       29.86R WCI  32
$$

NYZ001>004-010>016-019>021-250200-
WEST


CITY           SKY/WX    TMP DP  RH WIND       PRES   REMARKS
NIAGARA FALLS  PTCLDY    37  21  52 W9        30.01R WCI  30
BUFFALO        PTCLDY    38  20  48 W8        30.01R WCI  32
DUNKIRK        CLEAR     36  24  62 W8        30.03S WCI  30
JAMESTOWN      CLEAR     34  18  51 W5        29.99S WCI  30
WELLSVILLE     MOCLDY    34  19  54 NW14      29.96R WCI  25
ROCHESTER      MOCLDY    37  22  54 NW8       29.99R WCI  31
PENN YAN       CLOUDY    39  23  52 W7G17     29.97R WCI  34
$$

             KEY
       WCI = WIND CHILL INDEX
       VSB = VISIBILITY
       HX  = HEAT INDEX
$$



USA.gov is the U.S. government's official web portal to all federal, state and local government web resources and services.